Weather in Solnechny

Russia / Amur Oblast     54°07′54″N   123°40′15″E
temp.,
°C
wind,
m/s
gust,
m/s
humid.,
%
clouds,
%
prec.,
mm/h
press.,
hPa
HPBL,
m
15 april, thu
thu1500:00−11n1196100 0.0 101117
03:00−11n119767 0.0 101011
06:00−12n119757 0.0 101111
09:00−2w12665 0.0 1010273
12:00+3nw244176 0.0 10091891
15:00+4nnw1335100 0.0 10082075
18:00+2w126099 0.1 101045
21:00−3nw1191100 0.1 101311
16 april, fri
fri1600:00−5nne229396 0.1 101441
03:00−7nne219113 0.1 101630
06:00−9nne229188 0.0 101734
09:00−1nne125680 0.0 1016305
12:00+4nnw0141100 0.0 10161408
15:00+5wsw12365 0.0 10141978
18:00+4ssw23475 0.0 1014165
21:00−4s11825 0.0 101610
17 april, sat
sat1700:00−5e01885 0.0 101511
03:00−6e119211 0.0 101513
06:00−7e119341 0.0 101415
09:00+1s25575 0.0 1011400
12:00+6ssw47415 0.0 10081091
15:00+9ssw58395 0.0 10051681
18:00+8s37535 0.0 1004219
21:00+1e117564 0.0 100511
18 april, sun
sun1800:000ese1178100 0.0 100510
03:00−1ese1181100 0.0 100510
06:00−1nw008468 0.0 100610
09:00+4n46645 0.0 1008645
12:00+5n46455 0.0 10111550
15:00+6nnw46365 0.0 10121848
18:00+4nw36365 0.0 1013630
21:00−1nne387298 0.0 1017221
19 april, mon
mon1900:00−3nne4864100 0.0 1017311
03:00−3nne3660100 0.3 1016353
06:00−5nne3583100 0.8 1016370
09:00−3nne3485100 2.6 1015558
12:00+1n1166100 0.4 1014941
15:00+2n2352100 0.6 10141504
18:00−1n5962100 0.0 10181509
21:00−4nnw410695 0.1 1023698